Theta_e
302 302 302 302 303 303 303 303 304 304 305 305 305 305 305 305 305 305 307 311 311 312 310 311 310 312 310 310 311 317 321 320 318 313 314 323 325 326 328 331 337 346 348 347 350 350 348
302 302 302 302 303 303 303 304 306 307 307 307 306 306 306 305 305 306 309 311 310 308 314 310 312 312 312 310 312 321 319 323 317 314 315 322 327 324 326 329 337 340 343 345 344 345 345
302 302 302 302 303 303 304 305 306 306 307 308 308 308 307 307 305 306 310 311 310 308 313 311 309 316 315 312 313 322 320 321 318 316 316 316 318 326 324 328 330 331 338 334 339 342 342
302 302 303 303 303 304 304 305 306 307 308 308 309 309 308 307 306 306 310 310 308 308 314 315 309 317 315 313 311 315 316 323 320 314 317 317 317 324 323 325 324 332 331 335 337 341 342
302 303 303 303 303 304 305 305 306 306 307 308 308 308 309 308 307 306 310 310 307 308 315 308 314 319 317 318 313 317 316 319 322 319 317 317 317 318 322 322 321 322 332 338 339 339 343
302 303 303 304 304 305 305 305 305 306 307 308 308 308 308 309 308 307 310 308 308 308 308 309 313 314 312 310 311 316 317 319 324 325 319 318 318 315 316 318 328 325 332 334 335 337 343
302 303 303 304 304 305 305 304 305 305 306 306 307 307 308 308 308 307 309 306 307 307 306 306 308 307 310 310 312 312 314 319 324 323 316 317 315 317 316 320 323 327 332 336 335 335 339
302 303 303 304 305 305 303 303 304 304 304 304 305 306 307 307 309 307 307 307 308 307 304 309 310 309 309 310 310 312 314 317 322 319 319 317 318 317 318 319 321 322 325 330 332 333 333
302 303 303 304 305 303 303 303 303 303 304 304 304 306 307 309 308 306 307 308 308 308 304 307 310 309 309 311 311 312 313 314 315 322 320 322 322 320 321 320 321 322 323 326 331 331 333
303 303 304 305 305 304 304 304 304 304 304 304 306 307 310 309 307 307 308 308 308 308 302 307 310 309 309 311 311 311 312 314 315 320 322 321 323 324 321 323 322 322 323 326 328 331 332
304 304 304 305 305 305 305 305 305 304 304 304 305 308 310 308 309 308 308 308 309 308 306 311 308 309 309 309 310 311 311 314 314 314 316 322 323 324 324 324 324 325 324 326 327 327 329
304 304 304 305 305 305 305 304 304 304 304 304 304 308 310 309 309 309 308 309 308 305 307 310 308 307 307 308 310 310 310 313 314 316 316 317 320 323 324 326 326 326 325 325 326 324 329
303 303 304 304 305 304 304 303 303 303 303 304 304 310 311 310 309 310 309 309 304 305 308 307 306 306 306 308 309 309 309 315 314 317 317 319 319 320 324 326 326 327 324 326 328 327 332
302 302 302 302 303 303 303 303 303 303 303 303 304 311 310 311 311 310 309 304 308 307 307 306 306 306 306 308 309 309 308 311 313 313 314 316 322 321 321 326 327 328 327 327 330 331 332
301 301 302 302 302 302 302 302 302 302 302 302 303 309 311 310 310 310 309 304 306 305 306 306 305 306 306 309 308 308 308 310 314 313 314 315 318 315 322 323 328 328 330 325 322 317 323
301 300 300 301 301 301 301 301 302 302 301 301 302 305 311 312 312 310 303 305 305 307 306 306 306 307 306 307 308 308 309 309 311 311 311 313 315 315 319 322 325 329 325 328 319 326 326
301 301 301 300 301 301 301 301 301 300 300 301 302 306 311 310 309 307 302 302 305 308 307 307 307 307 306 306 308 309 308 309 310 309 310 312 313 317 319 320 322 325 327 328 327 319 327
300 301 301 301 301 300 300 300 300 301 301 301 302 301 310 309 306 302 302 303 307 307 308 307 307 306 306 308 308 307 310 310 310 311 311 311 315 319 321 318 317 324 324 319 331 326 316
300 300 300 299 300 303 305 306 305 305 303 302 304 307 309 309 305 303 304 307 308 307 307 308 307 305 305 307 307 309 309 309 310 309 310 310 317 314 319 318 319 320 326 321 321 316 320
300 300 299 300 305 306 306 306 306 306 305 303 306 303 308 307 307 304 304 307 308 309 308 307 306 305 305 306 305 307 308 309 309 308 310 311 313 311 316 317 314 317 319 323 320 319 322
300 299 300 306 307 307 306 306 306 306 306 304 307 303 306 301 303 303 304 305 308 310 309 308 305 306 305 303 304 304 307 308 308 309 309 309 311 308 310 310 311 313 315 318 319 321 322
300 301 305 307 307 307 307 307 307 306 306 305 306 306 305 304 305 304 305 306 308 308 308 309 309 309 308 302 303 304 305 306 308 308 308 308 311 308 310 312 312 315 320 324 324 321 320
302 306 307 307 308 308 308 308 307 307 305 305 305 305 305 306 306 306 307 308 308 307 309 309 308 308 307 306 306 306 306 306 307 309 308 308 309 308 311 316 322 325 323 326 326 325 325
308 308 308 308 308 309 309 309 308 307 306 306 306 306 305 307 307 307 307 307 308 308 308 308 308 307 308 307 308 307 306 306 307 307 307 309 308 306 309 316 331 321 320 322 327 325 325
308 308 308 309 310 309 309 308 308 308 307 306 306 307 306 305 305 306 307 308 306 306 307 308 308 308 308 307 303 304 308 310 307 307 307 307 308 308 312 320 325 323 321 321 322 325 322
308 309 310 310 309 307 306 306 307 307 307 306 307 307 307 305 306 305 306 306 307 307 307 307 308 307 308 307 305 309 311 314 312 312 308 309 308 313 309 327 330 322 320 318 322 325 319
309 310 309 306 306 309 310 311 310 308 308 308 307 308 308 305 306 306 307 306 305 305 304 306 308 307 307 307 309 311 312 310 317 315 313 314 314 314 314 327 324 319 318 318 322 321 318
310 306 307 311 311 311 311 311 309 308 308 308 308 309 308 307 308 308 307 307 307 306 307 307 304 307 305 308 309 309 310 311 313 311 313 314 316 319 323 325 327 317 318 318 315 316 316
307 310 312 311 311 312 312 311 309 308 308 308 309 309 309 308 308 308 309 308 308 309 307 307 307 306 307 307 307 307 311 311 310 312 311 314 311 315 316 318 315 317 317 313 312 312 313
Wind_Speed
18 19 20 20 21 22 23 23 24 25 26 27 27 27 27 26 26 25 21 21 23 22 30 26 21 14 10 7 14 7 8 2 33 33 35 33 31 17 8 10 8 16 14 9 22 20 18
19 20 20 21 22 23 24 25 27 29 30 29 29 28 27 26 27 25 20 20 23 28 21 21 19 14 6 4 3 6 16 3 28 37 37 36 24 26 13 4 16 6 19 21 19 21 12
20 20 20 21 22 24 24 25 27 29 30 33 33 31 29 27 27 25 20 21 25 28 17 18 26 15 10 17 6 3 7 9 22 35 40 39 13 24 9 1 25 17 11 8 12 18 5
18 18 19 20 21 22 24 27 29 31 32 33 35 35 32 29 28 26 20 23 26 21 15 19 26 9 9 8 3 6 8 10 17 33 31 33 24 30 6 5 7 3 5 3 9 9 11
18 19 20 21 22 24 26 28 30 31 32 33 35 36 33 32 28 26 22 25 25 14 14 26 12 9 8 9 21 12 19 15 18 24 32 14 30 7 9 2 5 3 4 6 6 12 6
19 20 21 22 23 24 26 28 30 30 31 32 34 37 34 33 30 24 23 27 21 10 18 11 12 6 11 27 26 17 17 10 20 18 20 10 13 5 2 5 11 6 4 5 7 5 13
18 19 19 21 23 25 25 26 28 31 33 34 33 34 36 33 29 18 23 21 20 4 24 8 17 6 19 27 15 16 11 3 15 16 7 14 6 19 29 20 4 4 4 5 5 8 8
18 19 21 22 22 24 26 28 30 31 33 35 35 35 36 35 25 11 16 17 15 11 13 8 9 5 25 22 7 28 21 4 9 7 6 5 18 21 7 7 12 8 6 6 10 5 5
18 19 20 21 22 24 27 29 31 33 35 37 37 37 36 34 15 11 10 17 16 22 3 10 6 17 29 17 4 12 35 12 5 10 14 13 5 15 12 14 13 16 15 8 9 5 4
19 20 21 21 22 25 27 29 31 34 35 35 35 36 35 25 6 13 10 17 23 9 4 5 9 12 25 6 7 19 25 7 5 9 14 15 20 13 20 17 15 18 13 14 13 1 4
19 20 21 22 23 25 27 30 31 32 34 35 34 36 28 11 10 13 16 21 13 0 3 4 5 12 13 15 13 19 20 9 2 9 6 17 13 17 20 22 18 13 8 9 10 3 3
20 21 22 23 24 26 28 31 32 33 34 35 34 32 19 11 10 14 19 22 2 5 4 2 4 9 10 19 8 15 16 15 5 6 14 16 16 16 25 15 16 5 6 6 1 2 11
21 21 22 24 25 27 30 31 33 34 35 35 33 24 13 8 12 17 22 9 4 2 5 4 3 6 5 8 7 11 13 16 8 9 7 10 24 15 9 19 13 10 9 2 5 6 15
23 23 23 24 26 28 30 32 33 35 34 34 31 13 7 12 11 15 19 5 3 2 1 3 5 5 5 10 4 8 6 4 14 6 3 5 13 21 14 13 17 15 12 6 9 7 12
22 23 24 25 26 27 29 32 33 34 33 34 30 11 4 9 14 13 10 3 4 2 3 4 6 3 3 2 2 8 5 2 6 14 6 6 8 13 22 15 18 9 21 9 5 2 3
22 23 24 25 26 26 28 30 31 32 32 32 33 15 0 10 14 9 4 5 2 3 4 2 1 2 4 4 4 5 2 2 3 11 14 3 9 9 12 26 17 15 10 11 4 9 10
23 23 23 24 26 26 27 28 30 32 32 30 25 8 6 18 19 2 3 5 2 1 5 2 1 2 3 1 2 3 4 4 6 8 6 6 5 11 8 11 29 11 11 8 7 4 11
21 22 22 23 25 26 26 27 29 30 31 28 16 3 11 16 7 4 2 7 4 2 4 2 1 5 2 3 4 5 5 4 5 6 3 3 5 7 10 12 17 24 8 7 13 13 1
21 22 22 23 25 26 26 26 26 25 25 26 17 8 10 10 3 4 8 5 4 3 4 2 3 4 3 4 3 5 6 5 5 3 0 2 3 5 7 3 5 3 17 9 6 6 10
21 21 22 23 25 25 25 25 24 22 20 20 7 4 6 8 8 3 4 5 4 9 4 5 5 4 2 4 6 4 5 5 6 7 11 7 3 7 5 1 6 8 9 9 10 7 8
20 21 23 24 24 25 25 25 23 20 17 13 3 1 2 4 2 3 3 5 7 5 6 10 4 4 3 5 4 6 7 5 7 5 2 3 6 7 16 20 18 18 19 17 7 11 14
19 22 24 25 26 26 25 24 22 18 15 7 4 4 2 8 6 5 3 2 8 5 4 4 5 16 13 7 9 7 7 6 7 9 4 4 4 4 7 13 18 9 11 14 15 8 6
20 22 25 27 27 27 25 23 19 13 10 5 4 7 4 4 2 2 2 3 6 13 7 8 8 13 9 9 15 19 19 21 9 10 8 5 3 3 6 4 1 4 9 9 4 13 3
21 24 26 28 28 27 25 21 16 10 8 11 10 10 3 3 4 3 7 17 14 10 8 15 20 5 10 22 30 22 23 22 18 17 16 4 2 3 4 5 6 8 10 9 21 19 18
23 26 28 29 28 24 21 17 14 9 9 12 13 12 4 3 6 8 11 10 16 15 8 12 19 13 22 15 4 4 2 3 13 17 15 9 2 4 2 3 6 5 11 10 6 16 20
26 28 29 28 23 19 17 16 15 10 8 10 12 12 11 4 4 7 7 11 5 3 4 6 14 15 6 2 2 2 3 1 6 4 8 4 8 3 4 0 3 5 20 31 11 13 19
28 29 26 22 20 19 19 18 16 9 6 8 11 8 8 5 8 7 4 5 4 4 3 7 10 8 8 2 2 2 2 4 2 4 5 2 2 8 9 1 2 12 22 15 7 3 24
27 24 22 22 22 21 20 17 11 6 4 4 6 7 8 4 10 10 12 12 5 4 2 7 6 3 5 5 3 3 3 3 2 3 3 4 3 1 1 4 2 20 9 7 2 10 21
22 22 23 23 23 22 18 13 8 4 1 0 2 5 6 11 8 11 11 10 9 9 7 5 7 4 4 3 4 3 2 4 9 3 6 5 3 4 6 2 7 4 10 12 16 16 26
Wind_Direction
35 32 30 27 25 23 21 18 15 13 9 5 1 358 357 355 353 353 352 351 341 340 336 323 317 318 309 262 256 259 257 204 179 183 187 180 179 186 186 198 220 234 256 260 241 255 242
34 31 28 25 23 21 19 18 16 13 9 5 1 357 356 354 349 349 350 346 344 344 349 2 338 314 286 255 283 259 219 252 193 185 186 187 190 183 207 225 196 200 245 257 269 266 235
30 27 26 23 20 18 16 14 10 8 6 5 5 360 357 354 346 346 346 343 341 337 332 337 344 312 269 264 228 143 191 227 201 194 190 196 190 183 195 105 254 257 278 297 270 261 235
28 25 24 22 18 14 9 6 4 2 2 3 1 0 358 355 346 340 340 343 342 334 327 331 335 319 267 341 326 268 269 223 204 200 205 202 194 200 198 292 334 180 158 204 248 210 207
24 23 21 18 14 9 6 2 359 358 356 356 356 354 357 357 349 339 338 344 341 337 340 336 354 326 314 13 5 320 333 246 213 210 205 221 203 211 224 232 352 296 210 183 278 199 180
21 19 18 14 10 6 2 359 357 356 354 352 353 349 352 355 350 340 339 342 342 321 344 357 0 328 356 324 337 318 357 182 190 195 206 215 190 173 156 152 214 202 204 212 216 218 196
18 16 12 9 6 2 358 358 359 359 356 352 351 348 346 351 350 340 343 7 16 352 336 303 313 267 335 346 5 1 343 232 190 163 166 201 188 203 209 209 188 187 203 215 250 198 174
13 10 7 4 0 359 358 359 359 359 355 351 350 346 339 347 347 344 353 46 29 342 308 357 40 306 2 355 339 14 1 340 197 191 156 147 218 221 212 187 216 244 245 250 286 212 178
5 2 360 360 359 357 357 356 355 357 356 350 349 345 336 344 345 355 19 14 357 341 257 293 5 21 5 341 18 17 12 337 269 217 194 206 228 199 205 204 200 221 223 221 235 57 215
358 357 355 355 355 355 354 352 352 353 353 349 349 344 338 348 15 351 21 356 343 337 63 289 2 21 5 18 358 9 358 354 312 235 217 227 235 208 193 217 197 220 212 225 244 134 218
352 351 350 350 349 348 348 348 349 349 348 347 350 344 343 358 17 5 347 347 334 59 327 19 20 7 37 48 299 346 8 341 231 276 288 221 200 221 211 210 199 230 167 204 237 200 298
344 344 345 344 343 342 344 344 345 345 345 346 350 343 348 357 348 352 352 340 127 47 242 67 64 351 20 27 22 348 11 9 356 307 266 249 267 211 225 221 216 164 169 194 129 130 253
336 337 338 338 339 340 340 341 342 343 345 344 350 343 0 23 350 343 343 352 42 136 351 10 320 342 46 1 31 13 17 38 25 2 1 317 244 259 228 210 204 197 144 214 226 200 236
333 332 332 332 335 337 337 338 340 341 346 343 351 349 49 7 327 324 342 43 79 344 330 340 348 15 28 15 50 15 24 30 44 48 301 340 253 222 218 210 197 209 200 169 189 201 227
331 330 330 331 332 335 336 336 340 340 346 343 349 347 9 13 345 320 355 33 205 314 304 332 327 29 24 350 26 30 356 104 58 28 25 332 277 346 221 212 194 197 212 184 107 336 154
332 331 331 332 332 334 336 339 339 339 345 346 344 340 329 342 340 317 87 226 196 2 322 326 94 1 343 334 50 52 305 14 63 28 7 301 298 262 281 220 228 199 158 202 216 199 224
332 333 335 335 334 336 341 340 338 340 345 349 345 349 342 329 318 220 166 221 164 39 30 32 223 260 248 31 151 177 259 333 25 4 350 313 232 296 314 216 214 197 197 196 174 181 223
330 334 338 338 335 339 340 338 339 343 345 353 352 346 348 355 49 29 10 321 316 274 309 335 255 209 229 193 240 226 205 202 1 18 316 253 282 265 257 298 308 225 175 170 204 212 253
328 334 337 335 336 338 339 339 341 347 346 351 339 305 360 14 56 345 323 303 293 270 259 178 235 205 203 220 249 222 181 182 95 310 102 312 262 306 292 279 212 177 199 198 205 124 210
329 332 333 336 336 338 338 337 340 344 345 347 341 348 338 51 103 70 329 273 301 320 290 347 239 235 190 216 229 248 240 196 139 261 227 206 250 227 250 322 2 309 329 224 185 198 192
331 333 334 335 335 336 334 335 334 338 346 349 340 327 2 319 359 338 225 270 294 347 353 339 330 8 280 255 249 232 241 189 160 183 169 253 253 222 251 260 271 265 275 285 254 208 204
333 336 333 332 332 332 333 332 333 335 344 353 327 342 353 292 287 318 302 320 318 325 298 284 334 314 296 215 220 234 241 228 211 187 221 243 258 257 272 243 233 248 253 255 253 202 216
337 334 331 330 332 331 330 329 329 330 331 337 310 291 272 263 282 257 245 264 282 299 275 212 270 300 280 261 267 270 256 259 216 164 199 217 256 332 267 323 44 202 346 321 52 47 360
337 332 330 329 331 329 328 326 324 318 300 282 295 283 254 266 234 240 272 291 292 290 287 287 293 250 289 301 315 278 259 240 219 208 205 185 221 234 267 291 169 146 24 12 77 47 19
333 331 330 330 329 330 329 329 321 311 286 277 284 276 231 267 263 277 280 296 301 298 280 278 281 287 312 297 288 288 321 236 206 205 208 207 184 281 282 308 107 19 352 333 320 41 15
333 333 331 331 332 334 334 332 328 311 288 277 274 273 258 272 251 262 297 294 298 309 300 267 314 333 335 359 308 313 269 259 148 183 156 126 209 249 319 72 134 327 326 312 202 41 356
335 335 336 338 338 338 334 332 329 321 303 279 281 286 258 237 282 292 257 275 277 288 272 296 327 327 342 11 290 311 253 268 74 107 184 186 252 222 226 230 70 340 323 332 64 15 333
339 342 343 341 339 337 337 336 334 337 327 285 304 309 273 247 302 307 312 294 285 246 289 319 348 346 318 13 345 333 309 348 114 47 65 49 299 16 301 61 67 338 331 77 281 336 357
346 346 343 343 342 341 345 352 345 350 315 244 340 351 337 253 285 329 11 30 339 322 265 333 321 299 320 356 5 321 335 332 1 56 11 48 18 335 359 79 275 343 66 48 34 16 0